JST809 AYPY-YBCS

Flight info

Callsign JST809
Flight time 1h 15m
Altitude 36000
Route UNSAM1 UNSAM DCT LENAK R210 ZANEY
Aircraft A321/M-SDE3FGHIRWY/LB1

Departure

Time 2026-04-27 07:34
Airport Port Moresby Jacksons International Airport (AYPY)

Arrival

Time 2026-04-27 08:49
Airport Cairns International Airport (YBCS)
Time Latitude Longitude Altitude Speed Heading
2026-04-27 07:18 -9.43819 147.21182 118 ft 0 kts 237°
2026-04-27 07:27 -9.43818 147.21184 117 ft 1 kts 237°
2026-04-27 07:27 -9.43808 147.21200 114 ft 3 kts 244°
2026-04-27 07:28 -9.43800 147.21219 115 ft 3 kts 253°
2026-04-27 07:28 -9.43796 147.21238 116 ft 3 kts 268°
2026-04-27 07:28 -9.43797 147.21258 116 ft 3 kts 290°
2026-04-27 07:28 -9.43805 147.21273 113 ft 2 kts 326°
2026-04-27 07:29 -9.43809 147.21275 114 ft 0 kts 331°
2026-04-27 07:31 -9.43785 147.21262 114 ft 11 kts 331°
2026-04-27 07:31 -9.43703 147.21266 115 ft 15 kts 20°
2026-04-27 07:31 -9.43575 147.21226 110 ft 26 kts 332°
2026-04-27 07:32 -9.43404 147.21125 112 ft 29 kts 328°
2026-04-27 07:32 -9.43259 147.21092 111 ft 13 kts 44°
2026-04-27 07:32 -9.43230 147.21166 111 ft 12 kts 67°
2026-04-27 07:32 -9.43192 147.21245 110 ft 13 kts 62°
2026-04-27 07:33 -9.43143 147.21331 112 ft 15 kts 60°
2026-04-27 07:33 -9.43159 147.21427 113 ft 3 kts 153°
2026-04-27 07:33 -9.43206 147.21458 113 ft 36 kts 147°
2026-04-27 07:33 -9.43652 147.21737 115 ft 111 kts 149°
2026-04-27 07:34 -9.44472 147.22238 272 ft 155 kts 148°
2026-04-27 07:34 -9.45350 147.22844 1091 ft 157 kts 143°
2026-04-27 07:34 -9.46252 147.23503 1748 ft 162 kts 150°
2026-04-27 07:34 -9.47347 147.23771 2382 ft 170 kts 182°
2026-04-27 07:35 -9.48556 147.23465 2767 ft 192 kts 192°
2026-04-27 07:35 -9.49901 147.23023 3073 ft 214 kts 193°
2026-04-27 07:35 -9.51409 147.22528 3319 ft 239 kts 193°
2026-04-27 07:35 -9.53087 147.21998 3766 ft 261 kts 193°
2026-04-27 07:36 -9.54840 147.21465 4636 ft 265 kts 193°
2026-04-27 07:36 -9.56639 147.20938 5462 ft 272 kts 194°
2026-04-27 07:36 -9.58486 147.20414 6327 ft 278 kts 195°
2026-04-27 07:36 -9.60373 147.19890 7155 ft 283 kts 195°
2026-04-27 07:37 -9.62289 147.19364 8018 ft 287 kts 196°
2026-04-27 07:37 -9.64229 147.18837 8871 ft 291 kts 197°
2026-04-27 07:37 -9.66202 147.18301 9705 ft 295 kts 197°
2026-04-27 07:37 -9.68209 147.17756 10363 ft 304 kts 198°
2026-04-27 07:38 -9.70265 147.17193 10572 ft 326 kts 198°
2026-04-27 07:38 -9.72593 147.16551 10752 ft 347 kts 198°
2026-04-27 07:38 -9.74955 147.15903 11230 ft 355 kts 198°
2026-04-27 07:38 -9.77355 147.15252 11825 ft 359 kts 197°
2026-04-27 07:39 -9.79806 147.14677 12426 ft 364 kts 195°
2026-04-27 07:39 -9.82306 147.14176 13016 ft 368 kts 193°
2026-04-27 07:39 -9.84842 147.13716 13597 ft 371 kts 193°
2026-04-27 07:39 -9.87386 147.13266 14125 ft 375 kts 193°
2026-04-27 07:40 -9.89975 147.12796 14667 ft 377 kts 193°
2026-04-27 07:40 -9.92559 147.12312 15222 ft 379 kts 193°
2026-04-27 07:40 -9.95159 147.11811 15774 ft 381 kts 194°
2026-04-27 07:40 -9.97770 147.11299 16325 ft 383 kts 193°
2026-04-27 07:41 -10.00396 147.10781 16873 ft 385 kts 193°
2026-04-27 07:41 -10.03029 147.10264 17417 ft 387 kts 193°
2026-04-27 07:41 -10.05689 147.09744 17952 ft 390 kts 193°
2026-04-27 07:41 -10.08357 147.09226 18381 ft 392 kts 193°
2026-04-27 07:42 -10.11047 147.08704 18758 ft 394 kts 193°
2026-04-27 07:42 -10.13750 147.08177 19105 ft 397 kts 193°
2026-04-27 07:42 -10.16471 147.07645 19473 ft 400 kts 193°
2026-04-27 07:42 -10.19257 147.07102 19827 ft 403 kts 193°
2026-04-27 07:43 -10.22020 147.06563 20196 ft 406 kts 193°
2026-04-27 07:43 -10.24807 147.06018 20553 ft 409 kts 193°
2026-04-27 07:43 -10.27607 147.05470 20900 ft 412 kts 193°
2026-04-27 07:43 -10.30432 147.04916 21246 ft 415 kts 194°
2026-04-27 07:44 -10.33240 147.04366 21585 ft 418 kts 194°
2026-04-27 07:44 -10.36101 147.03808 21929 ft 420 kts 194°
2026-04-27 07:44 -10.38986 147.03247 22264 ft 423 kts 194°
2026-04-27 07:44 -10.41887 147.02682 22577 ft 426 kts 194°
2026-04-27 07:45 -10.44805 147.02111 22898 ft 428 kts 194°
2026-04-27 07:45 -10.47743 147.01533 23202 ft 431 kts 194°
2026-04-27 07:45 -10.50695 147.00954 23493 ft 433 kts 194°
2026-04-27 07:45 -10.53672 147.00373 23748 ft 435 kts 194°
2026-04-27 07:46 -10.56631 146.99796 24012 ft 437 kts 194°
2026-04-27 07:46 -10.59663 146.99202 24292 ft 438 kts 194°
2026-04-27 07:46 -10.62617 146.98621 24570 ft 439 kts 195°
2026-04-27 07:46 -10.65634 146.98030 24840 ft 441 kts 195°
2026-04-27 07:47 -10.68654 146.97437 25107 ft 442 kts 195°
2026-04-27 07:47 -10.71668 146.96845 25373 ft 443 kts 195°
2026-04-27 07:47 -10.74706 146.96249 25630 ft 445 kts 195°
2026-04-27 07:47 -10.77749 146.95653 25885 ft 446 kts 195°
2026-04-27 07:48 -10.80801 146.95057 26149 ft 447 kts 195°
2026-04-27 07:48 -10.83901 146.94452 26406 ft 449 kts 195°
2026-04-27 07:48 -10.86970 146.93856 26664 ft 450 kts 195°
2026-04-27 07:48 -10.90057 146.93257 26906 ft 452 kts 195°
2026-04-27 07:49 -10.93153 146.92654 27158 ft 453 kts 195°
2026-04-27 07:49 -10.96255 146.92046 27413 ft 455 kts 195°
2026-04-27 07:49 -10.99366 146.91433 27653 ft 456 kts 195°
2026-04-27 07:49 -11.02495 146.90818 27888 ft 458 kts 195°
2026-04-27 07:50 -11.05592 146.90208 28120 ft 459 kts 195°
2026-04-27 07:50 -11.08774 146.89587 28349 ft 461 kts 195°
2026-04-27 07:50 -11.11934 146.88971 28582 ft 462 kts 195°
2026-04-27 07:50 -11.15051 146.88365 28795 ft 464 kts 195°
2026-04-27 07:51 -11.18222 146.87747 29011 ft 465 kts 195°
2026-04-27 07:51 -11.21416 146.87121 29234 ft 467 kts 196°
2026-04-27 07:51 -11.24614 146.86489 29444 ft 468 kts 196°
2026-04-27 07:51 -11.27814 146.85857 29670 ft 470 kts 196°
2026-04-27 07:52 -11.31029 146.85225 29892 ft 471 kts 196°
2026-04-27 07:52 -11.34261 146.84593 30087 ft 473 kts 196°
2026-04-27 07:52 -11.37497 146.83961 30265 ft 475 kts 195°
2026-04-27 07:52 -11.40744 146.83328 30477 ft 475 kts 195°
2026-04-27 07:53 -11.43990 146.82691 30722 ft 475 kts 195°
2026-04-27 07:53 -11.47238 146.82051 30949 ft 476 kts 195°
2026-04-27 07:53 -11.50491 146.81411 31169 ft 476 kts 195°
2026-04-27 07:53 -11.53740 146.80775 31391 ft 477 kts 195°
2026-04-27 07:54 -11.57011 146.80137 31613 ft 478 kts 195°
2026-04-27 07:54 -11.60281 146.79496 31835 ft 478 kts 195°
2026-04-27 07:54 -11.63556 146.78853 32056 ft 479 kts 195°
2026-04-27 07:54 -11.66790 146.78215 32274 ft 479 kts 195°
2026-04-27 07:55 -11.70066 146.77568 32501 ft 480 kts 195°
2026-04-27 07:55 -11.73347 146.76919 32710 ft 481 kts 195°
2026-04-27 07:55 -11.76623 146.76271 32935 ft 481 kts 195°
2026-04-27 07:55 -11.79918 146.75619 33154 ft 482 kts 195°
2026-04-27 07:56 -11.83213 146.74969 33376 ft 482 kts 195°
2026-04-27 07:56 -11.86514 146.74321 33596 ft 482 kts 195°
2026-04-27 07:56 -11.89809 146.73673 33814 ft 483 kts 195°
2026-04-27 07:56 -11.93116 146.73022 34011 ft 483 kts 195°
2026-04-27 07:57 -11.96415 146.72372 34229 ft 483 kts 195°
2026-04-27 07:57 -11.99713 146.71721 34462 ft 482 kts 196°
2026-04-27 07:57 -12.03006 146.71073 34709 ft 481 kts 196°
2026-04-27 07:57 -12.06291 146.70430 34959 ft 479 kts 196°
2026-04-27 07:58 -12.09559 146.69789 35210 ft 478 kts 196°
2026-04-27 07:58 -12.12824 146.69150 35459 ft 477 kts 196°
2026-04-27 07:58 -12.16039 146.68518 35704 ft 476 kts 196°
2026-04-27 07:58 -12.19288 146.67875 35861 ft 475 kts 196°
2026-04-27 07:59 -12.22532 146.67236 35895 ft 474 kts 196°
2026-04-27 07:59 -12.32241 146.65335 35891 ft 473 kts 197°
2026-04-27 08:00 -12.38712 146.64062 35892 ft 473 kts 197°
2026-04-27 08:00 -12.45175 146.62779 35893 ft 473 kts 197°
2026-04-27 08:01 -12.51595 146.61498 35901 ft 473 kts 197°
2026-04-27 08:01 -12.58079 146.60222 35911 ft 474 kts 197°
2026-04-27 08:02 -12.64560 146.58954 35920 ft 474 kts 197°
2026-04-27 08:02 -12.71038 146.57680 35924 ft 474 kts 197°
2026-04-27 08:03 -12.77503 146.56390 35926 ft 473 kts 197°
2026-04-27 08:03 -12.83975 146.55099 35930 ft 473 kts 197°
2026-04-27 08:04 -12.90386 146.53840 35925 ft 473 kts 197°
2026-04-27 08:04 -12.96898 146.52562 35925 ft 473 kts 197°
2026-04-27 08:05 -13.03317 146.51293 35927 ft 472 kts 198°
2026-04-27 08:05 -13.09772 146.50014 35929 ft 472 kts 198°
2026-04-27 08:06 -13.16218 146.48731 35927 ft 471 kts 198°
2026-04-27 08:06 -13.22662 146.47449 35928 ft 471 kts 198°
2026-04-27 08:07 -13.28057 146.46382 35929 ft 471 kts 198°
2026-04-27 08:07 -13.35554 146.44890 35932 ft 471 kts 198°
2026-04-27 08:08 -13.40904 146.43821 35933 ft 471 kts 198°
2026-04-27 08:08 -13.47336 146.42544 35933 ft 471 kts 198°
2026-04-27 08:09 -13.53776 146.41274 35935 ft 470 kts 198°
2026-04-27 08:09 -13.60204 146.39998 35939 ft 470 kts 198°
2026-04-27 08:10 -13.66621 146.38716 35941 ft 470 kts 198°
2026-04-27 08:10 -13.73035 146.37427 35937 ft 469 kts 199°
2026-04-27 08:11 -13.79398 146.36162 35946 ft 469 kts 198°
2026-04-27 08:11 -13.85801 146.34898 35943 ft 468 kts 199°
2026-04-27 08:12 -13.92211 146.33617 35948 ft 468 kts 199°
2026-04-27 08:12 -13.98585 146.32337 35944 ft 467 kts 199°
2026-04-27 08:13 -14.04972 146.31056 35943 ft 467 kts 199°
2026-04-27 08:13 -14.11312 146.29800 35943 ft 466 kts 199°
2026-04-27 08:14 -14.17678 146.28521 35944 ft 466 kts 199°
2026-04-27 08:14 -14.24048 146.27242 35947 ft 465 kts 199°
2026-04-27 08:15 -14.30398 146.25973 35947 ft 465 kts 199°
2026-04-27 08:15 -14.36745 146.24697 35950 ft 464 kts 199°
2026-04-27 08:16 -14.43085 146.23422 35952 ft 464 kts 199°
2026-04-27 08:16 -14.49383 146.22161 35952 ft 464 kts 199°
2026-04-27 08:17 -14.55712 146.20899 35953 ft 463 kts 199°
2026-04-27 08:17 -14.62045 146.19626 35952 ft 463 kts 199°
2026-04-27 08:18 -14.68371 146.18357 35951 ft 462 kts 199°
2026-04-27 08:18 -14.74675 146.17104 35953 ft 462 kts 199°
2026-04-27 08:19 -14.80992 146.15838 35948 ft 461 kts 199°
2026-04-27 08:19 -14.87295 146.14566 35954 ft 461 kts 199°
2026-04-27 08:20 -14.93601 146.13290 35064 ft 464 kts 199°
2026-04-27 08:20 -14.96766 146.12650 34378 ft 461 kts 199°
2026-04-27 08:20 -14.99881 146.12029 33889 ft 453 kts 199°
2026-04-27 08:21 -15.02966 146.11414 33349 ft 445 kts 199°
2026-04-27 08:21 -15.05980 146.10817 32870 ft 436 kts 199°
2026-04-27 08:21 -15.08925 146.10230 32399 ft 427 kts 200°
2026-04-27 08:21 -15.11815 146.09650 31924 ft 419 kts 200°
2026-04-27 08:22 -15.14653 146.09080 31447 ft 412 kts 200°
2026-04-27 08:22 -15.17426 146.08517 31006 ft 410 kts 200°
2026-04-27 08:22 -15.20221 146.07945 30550 ft 409 kts 200°
2026-04-27 08:22 -15.22994 146.07379 30103 ft 408 kts 200°
2026-04-27 08:23 -15.25793 146.06807 29590 ft 406 kts 200°
2026-04-27 08:23 -15.28557 146.06247 29167 ft 403 kts 199°
2026-04-27 08:23 -15.31304 146.05693 28734 ft 400 kts 199°
2026-04-27 08:23 -15.34024 146.05148 28303 ft 397 kts 199°
2026-04-27 08:24 -15.36732 146.04608 27902 ft 394 kts 199°
2026-04-27 08:24 -15.39419 146.04070 27481 ft 392 kts 199°
2026-04-27 08:24 -15.42090 146.03534 27075 ft 390 kts 199°
2026-04-27 08:24 -15.44746 146.02996 26677 ft 388 kts 199°
2026-04-27 08:25 -15.47393 146.02456 26291 ft 386 kts 198°
2026-04-27 08:25 -15.50009 146.01925 25895 ft 384 kts 198°
2026-04-27 08:25 -15.52636 146.01392 25504 ft 382 kts 198°
2026-04-27 08:25 -15.55207 146.00867 25101 ft 380 kts 198°
2026-04-27 08:26 -15.57797 146.00340 24697 ft 379 kts 197°
2026-04-27 08:26 -15.60381 145.99816 24288 ft 378 kts 197°
2026-04-27 08:26 -15.62961 145.99294 23870 ft 377 kts 196°
2026-04-27 08:26 -15.65539 145.98771 23439 ft 376 kts 196°
2026-04-27 08:27 -15.68107 145.98251 22973 ft 375 kts 195°
2026-04-27 08:27 -15.70659 145.97737 22542 ft 372 kts 195°
2026-04-27 08:27 -15.73186 145.97227 22129 ft 368 kts 195°
2026-04-27 08:27 -15.75662 145.96729 21994 ft 357 kts 195°
2026-04-27 08:28 -15.78066 145.96245 21867 ft 345 kts 195°
2026-04-27 08:28 -15.80390 145.95778 21741 ft 334 kts 195°
2026-04-27 08:28 -15.82641 145.95322 21617 ft 324 kts 196°
2026-04-27 08:28 -15.84818 145.94880 21426 ft 316 kts 196°
2026-04-27 08:29 -15.86948 145.94443 20567 ft 320 kts 196°
2026-04-27 08:29 -15.89190 145.93974 19590 ft 327 kts 196°
2026-04-27 08:29 -15.91396 145.93517 18795 ft 327 kts 196°
2026-04-27 08:29 -15.93614 145.93067 18121 ft 323 kts 196°
2026-04-27 08:30 -15.95840 145.92620 17616 ft 319 kts 195°
2026-04-27 08:30 -15.97956 145.92198 17539 ft 309 kts 196°
2026-04-27 08:30 -16.00076 145.91766 17473 ft 312 kts 196°
2026-04-27 08:30 -16.02196 145.91273 17206 ft 310 kts 202°
2026-04-27 08:31 -16.04179 145.90415 16849 ft 303 kts 213°
2026-04-27 08:31 -16.05964 145.89326 16492 ft 300 kts 214°
2026-04-27 08:31 -16.07767 145.88226 16129 ft 299 kts 214°
2026-04-27 08:31 -16.09557 145.87143 15763 ft 298 kts 214°
2026-04-27 08:32 -16.11373 145.86044 15263 ft 302 kts 214°
2026-04-27 08:32 -16.13193 145.84941 14880 ft 302 kts 214°
2026-04-27 08:32 -16.15010 145.83841 14513 ft 301 kts 213°
2026-04-27 08:32 -16.16818 145.82748 14156 ft 300 kts 213°
2026-04-27 08:33 -16.18619 145.81657 13791 ft 299 kts 213°
2026-04-27 08:33 -16.20414 145.80566 13404 ft 298 kts 213°
2026-04-27 08:33 -16.22197 145.79485 13043 ft 296 kts 213°
2026-04-27 08:33 -16.23969 145.78411 12685 ft 293 kts 212°
2026-04-27 08:34 -16.25721 145.77348 12335 ft 291 kts 211°
2026-04-27 08:34 -16.27467 145.76288 11991 ft 290 kts 211°
2026-04-27 08:34 -16.29210 145.75225 11635 ft 290 kts 211°
2026-04-27 08:34 -16.30952 145.74165 11291 ft 290 kts 210°
2026-04-27 08:35 -16.32685 145.73111 11004 ft 283 kts 210°
2026-04-27 08:35 -16.34339 145.72105 10636 ft 272 kts 208°
2026-04-27 08:35 -16.35965 145.71118 10328 ft 270 kts 208°
2026-04-27 08:35 -16.37583 145.70134 9985 ft 268 kts 207°
2026-04-27 08:36 -16.39194 145.69154 9579 ft 267 kts 207°
2026-04-27 08:36 -16.40751 145.68105 9280 ft 268 kts 220°
2026-04-27 08:36 -16.41903 145.66561 8876 ft 273 kts 234°
2026-04-27 08:36 -16.42886 145.64865 8478 ft 275 kts 237°
2026-04-27 08:37 -16.43846 145.63157 8068 ft 267 kts 236°
2026-04-27 08:37 -16.44755 145.61514 7676 ft 256 kts 237°
2026-04-27 08:37 -16.45613 145.59953 7323 ft 242 kts 236°
2026-04-27 08:37 -16.46423 145.58476 6940 ft 233 kts 236°
2026-04-27 08:38 -16.47362 145.57163 6557 ft 220 kts 213°
2026-04-27 08:38 -16.48727 145.56593 6201 ft 210 kts 183°
2026-04-27 08:38 -16.50159 145.56534 5819 ft 203 kts 177°
2026-04-27 08:38 -16.51586 145.56584 5422 ft 204 kts 170°
2026-04-27 08:39 -16.52817 145.57184 5041 ft 192 kts 133°
2026-04-27 08:39 -16.53489 145.58269 5016 ft 165 kts 126°
2026-04-27 08:39 -16.54260 145.59021 5027 ft 145 kts 143°
2026-04-27 08:39 -16.55089 145.59616 5015 ft 143 kts 146°
2026-04-27 08:40 -16.55919 145.60193 5012 ft 143 kts 146°
2026-04-27 08:40 -16.56754 145.60766 5013 ft 143 kts 146°
2026-04-27 08:40 -16.57610 145.61299 5014 ft 144 kts 156°
2026-04-27 08:40 -16.58529 145.61707 5021 ft 143 kts 156°
2026-04-27 08:41 -16.59445 145.62116 5020 ft 143 kts 155°
2026-04-27 08:41 -16.60352 145.62522 5022 ft 143 kts 155°
2026-04-27 08:41 -16.61266 145.62933 5021 ft 143 kts 155°
2026-04-27 08:41 -16.62181 145.63345 4968 ft 144 kts 155°
2026-04-27 08:42 -16.63100 145.63759 4853 ft 143 kts 155°
2026-04-27 08:42 -16.64005 145.64167 4689 ft 141 kts 155°
2026-04-27 08:42 -16.64908 145.64574 4507 ft 141 kts 154°
2026-04-27 08:42 -16.65800 145.64976 4330 ft 139 kts 155°
2026-04-27 08:43 -16.66692 145.65378 4152 ft 139 kts 154°
2026-04-27 08:43 -16.67578 145.65778 3971 ft 138 kts 155°
2026-04-27 08:43 -16.68463 145.66177 3788 ft 138 kts 155°
2026-04-27 08:43 -16.69325 145.66565 3616 ft 136 kts 156°
2026-04-27 08:44 -16.70197 145.66959 3442 ft 137 kts 156°
2026-04-27 08:44 -16.71065 145.67350 3271 ft 135 kts 156°
2026-04-27 08:44 -16.71920 145.67736 3093 ft 133 kts 156°
2026-04-27 08:44 -16.72766 145.68118 2912 ft 133 kts 157°
2026-04-27 08:45 -16.73621 145.68504 2744 ft 134 kts 156°
2026-04-27 08:45 -16.74485 145.68893 2563 ft 132 kts 155°
2026-04-27 08:45 -16.75333 145.69276 2400 ft 134 kts 155°
2026-04-27 08:45 -16.76178 145.69657 2226 ft 134 kts 155°
2026-04-27 08:46 -16.77046 145.70049 2047 ft 136 kts 155°
2026-04-27 08:46 -16.77916 145.70442 1869 ft 136 kts 155°
2026-04-27 08:46 -16.78786 145.70835 1688 ft 137 kts 156°
2026-04-27 08:46 -16.79646 145.71223 1512 ft 136 kts 155°
2026-04-27 08:47 -16.80504 145.71610 1333 ft 132 kts 154°
2026-04-27 08:47 -16.81335 145.71986 1159 ft 130 kts 157°
2026-04-27 08:47 -16.82174 145.72365 993 ft 131 kts 158°
2026-04-27 08:47 -16.83007 145.72741 819 ft 131 kts 156°
2026-04-27 08:48 -16.83843 145.73118 645 ft 129 kts 156°
2026-04-27 08:48 -16.84675 145.73495 432 ft 133 kts 159°
2026-04-27 08:48 -16.85524 145.73892 293 ft 135 kts 158°
2026-04-27 08:48 -16.86367 145.74260 135 ft 131 kts 158°
2026-04-27 08:49 -16.86919 145.74505 36 ft 124 kts 156°
2026-04-27 08:49 -16.87617 145.74822 21 ft 89 kts 156°
2026-04-27 08:49 -16.88157 145.75065 17 ft 90 kts 156°
2026-04-27 08:49 -16.88412 145.75256 21 ft 3 kts 41°
2026-04-27 08:50 -16.88354 145.75270 18 ft 9 kts 24°
2026-04-27 08:50 -16.88347 145.75275 18 ft 0 kts 30°
2026-04-27 08:51 -16.88331 145.75284 17 ft 8 kts 30°
2026-04-27 08:51 -16.88259 145.75296 16 ft 12 kts 350°
2026-04-27 08:51 -16.88171 145.75266 16 ft 14 kts 342°
2026-04-27 08:52 -16.88072 145.75221 15 ft 17 kts 336°
2026-04-27 08:52 -16.87956 145.75168 16 ft 19 kts 336°
2026-04-27 08:52 -16.87831 145.75109 18 ft 20 kts 335°
2026-04-27 08:52 -16.87757 145.75075 18 ft 1 kts 336°
2026-04-27 08:55 -16.87743 145.75069 19 ft 7 kts 338°
2026-04-27 08:55 -16.87664 145.75087 16 ft 15 kts 42°
2026-04-27 08:56 -16.87597 145.75178 16 ft 16 kts 65°
2026-04-27 08:56 -16.87593 145.75189 16 ft 0 kts 67°